Simultaneous Nadir Overpasses (SNOs) Predictions

Prediction of SNOs between METOP-B and TERRA Satellite Orbit:

Table of predicted SNOs for the next 14.0 days since TLE Epoch: 12/30/2017
Index Date (METOP-B) Time (METOP-B) Lat,Lon (METOP-B) SZA (METOP-B ) Date (TERRA) Time (TERRA) Lat,Lon (TERRA) SZA (TERRA ) Distance(km) Time Diff (sec)
1 01/01/2018 03:03:38 81.31,-178.56 106.86 01/01/2018 03:04:35 81.30,-178.72 106.87 2.90 57
2 01/01/2018 03:54:18 -81.32, -10.78 73.09 01/01/2018 03:54:01 -81.32, -10.77 73.10 0.27 17
3 01/03/2018 22:38:00 81.31,-111.96 106.59 01/03/2018 22:38:50 81.31,-112.13 106.60 2.78 50
4 01/03/2018 23:28:41 -81.32, 55.47 73.40 01/03/2018 23:28:17 -81.31, 55.46 73.42 0.75 24
5 01/06/2018 18:12:22 81.31, -45.77 106.22 01/06/2018 18:13:04 81.32, -45.60 106.26 2.90 42
6 01/06/2018 19:03:02 -81.32, 122.09 73.73 01/06/2018 19:02:31 -81.31, 122.01 73.76 1.44 31
7 01/09/2018 13:46:44 81.31, 20.81 105.83 01/09/2018 13:47:19 81.32, 20.86 105.86 0.99 35
8 01/09/2018 14:37:25 -81.32,-171.70 74.16 01/09/2018 14:36:46 -81.32,-171.52 74.16 2.98 39
9 01/12/2018 09:21:06 81.32, 87.37 105.39 01/12/2018 09:21:34 81.32, 87.25 105.39 2.01 28




NCC Satellite Simultaneous Nadir Overpasses (SNOs) Prediction Service
